FW2664 Weather Reports


time (UTC)temp
C
wind
direction
speed
KPH
gust
KPH
rain 1hr
cm
rain 24hr
cm
rain mn
cm
humidity
%
barometer
mb
20260509055401 15 78 3.2 3.2 0.00 0.00 0.00 71 1009.6
20260509054858 15 88 3.2 3.2 0.00 0.00 0.00 70 1009.6
20260509054355 15 151 3.2 6.4 0.00 0.00 0.00 69 1009.6
20260509053853 15 95 3.2 6.4 0.00 0.00 0.00 69 1009.8
20260509053350 15 98 3.2 3.2 0.00 0.00 0.00 68 1009.8
20260509052848 16 77 3.2 4.8 0.00 0.00 0.00 68 1009.9
20260509052345 15 120 3.2 11.3 0.00 0.00 0.00 67 1009.5
20260509051843 16 39 3.2 4.8 0.00 0.00 0.00 67 1009.6
20260509051341 16 96 3.2 3.2 0.00 0.00 0.00 67 1009.6
20260509050837 16 117 4.8 6.4 0.00 0.00 0.00 66 1009.9
20260509050334 16 52 3.2 4.8 0.00 0.00 0.00 66 1009.8
20260509045831 16 26 0.0 3.2 0.00 0.00 0.00 65 1009.6
20260509045328 16 107 6.4 6.4 0.00 0.00 0.00 65 1009.6
20260509044825 16 89 0.0 4.8 0.00 0.00 0.00 65 1009.7
20260509044323 16 94 1.6 4.8 0.00 0.00 0.00 64 1009.6
20260509043819 16 115 1.6 3.2 0.00 0.00 0.00 63 1009.4
20260509043315 16 88 3.2 3.2 0.00 0.00 0.00 63 1009.6
20260509042811 16 82 3.2 4.8 0.00 0.00 0.00 62 1009.6
20260509042308 16 97 3.2 3.2 0.00 0.00 0.00 61 1009.6
20260509041804 16 109 3.2 6.4 0.00 0.00 0.00 61 1009.6
20260509041302 16 89 1.6 3.2 0.00 0.00 0.00 62 1009.6
20260509040800 16 85 3.2 4.8 0.00 0.00 0.00 61 1009.9
20260509040257 16 79 3.2 4.8 0.00 0.00 0.00 60 1009.6
20260509035754 16 94 3.2 4.8 0.00 0.00 0.00 60 1009.7
20260509035251 16 79 3.2 4.8 0.00 0.00 0.00 59 1009.6
20260509034747 16 86 3.2 6.4 0.00 0.00 0.00 58 1009.7
20260509034245 17 37 3.2 3.2 0.00 0.00 0.00 58 1009.8
20260509033742 17 87 1.6 3.2 0.00 0.00 0.00 57 1009.8
20260509033239 17 93 3.2 3.2 0.00 0.00 0.00 57 1009.8
20260509032736 17 64 3.2 3.2 0.00 0.00 0.00 56 1009.8
20260509032233 17 104 1.6 4.8 0.00 0.00 0.00 55 1009.9
20260509031730 17 89 3.2 6.4 0.00 0.00 0.00 54 1009.8
20260509031228 17 93 1.6 3.2 0.00 0.00 0.00 55 1009.9
20260509030726 17 103 1.6 3.2 0.00 0.00 0.00 54 1009.9
20260509030223 18 94 3.2 6.4 0.00 0.00 0.00 53 1009.7
20260509025719 18 117 1.6 4.8 0.00 0.00 0.00 52 1009.7
20260509025215 18 134 0.0 6.4 0.00 0.00 0.00 52 1009.9
20260509024710 18 121 3.2 6.4 0.00 0.00 0.00 51 1009.7
20260509024206 18 108 3.2 9.7 0.00 0.00 0.00 51 1009.7
20260509023704 18 107 3.2 8.0 0.00 0.00 0.00 51 1009.7
20260509023201 18 100 3.2 8.0 0.00 0.00 0.00 50 1009.8
20260509022657 18 92 3.2 6.4 0.00 0.00 0.00 49 1009.7
20260509022155 18 122 3.2 8.0 0.00 0.00 0.00 49 1009.8
20260509021652 18 99 0.0 4.8 0.00 0.00 0.00 50 1009.9
20260509021149 19 107 3.2 8.0 0.00 0.00 0.00 48 1009.8
20260509020648 19 143 3.2 6.4 0.00 0.00 0.00 48 1009.8
20260509020144 19 142 3.2 9.7 0.00 0.00 0.00 48 1009.8
20260509015643 19 184 3.2 6.4 0.00 0.00 0.00 47 1009.7
20260509015140 19 100 8.0 12.9 0.00 0.00 0.00 47 1009.7
20260509014636 19 143 4.8 6.4 0.00 0.00 0.00 47 1009.6
20260509014133 18 151 3.2 8.0 0.00 0.00 0.00 48 1009.5
20260509013630 18 92 3.2 3.2 0.00 0.00 0.00 48 1009.7
20260509013125 18 83 3.2 3.2 0.00 0.00 0.00 48 1009.7
20260509012622 18 72 3.2 8.0 0.00 0.00 0.00 47 1009.5
20260509012119 18 95 3.2 4.8 0.00 0.00 0.00 48 1009.5
20260509011617 18 118 4.8 6.4 0.00 0.00 0.00 48 1009.5
20260509011114 18 64 4.8 4.8 0.00 0.00 0.00 50 1009.5
20260509010612 18 83 3.2 4.8 0.00 0.00 0.00 49 1009.5
20260509010108 18 86 3.2 4.8 0.00 0.00 0.00 48 1009.5
20260509005606 18 92 3.2 4.8 0.00 0.00 0.00 47 1009.7
20260509005101 19 88 3.2 4.8 0.00 0.00 0.00 46 1009.3
20260509004558 20 66 3.2 3.2 0.00 0.00 0.00 42 1009.7
20260509004055 20 89 0.0 3.2 0.00 0.00 0.00 42 1009.6
20260509003553 20 77 3.2 3.2 0.00 0.00 0.00 40 1009.5
20260509003050 20 108 3.2 4.8 0.00 0.00 0.00 41 1009.6
20260509002548 21 84 3.2 4.8 0.00 0.00 0.00 39 1009.7
20260509002045 21 106 4.8 4.8 0.00 0.00 0.00 37 1009.6
20260509001542 21 92 3.2 4.8 0.00 0.00 0.00 38 1009.5
20260509001038 22 107 4.8 6.4 0.00 0.00 0.00 37 1009.8
20260509000537 22 111 4.8 6.4 0.00 0.00 0.00 36 1009.7
20260509000032 22 79 0.0 3.2 0.00 0.00 0.00 36 1009.6
20260508235530 22 112 3.2 6.4 0.00 0.00 0.00 35 1009.6
20260508235026 22 172 4.8 11.3 0.00 0.00 0.00 35 1009.6
20260508234524 22 144 1.6 6.4 0.00 0.00 0.00 34 1009.7
20260508234021 23 105 4.8 14.5 0.00 0.00 0.00 34 1009.7
20260508233520 23 108 3.2 6.4 0.00 0.00 0.00 34 1009.8
20260508233017 23 123 1.6 9.7 0.00 0.00 0.00 31 1009.9
20260508232514 23 71 3.2 6.4 0.00 0.00 0.00 31 1009.9
20260508232011 23 114 3.2 6.4 0.00 0.00 0.00 30 1010.0
20260508231508 24 193 0.0 6.4 0.00 0.00 0.00 31 1010.0
20260508231005 24 89 4.8 9.7 0.00 0.00 0.00 31 1009.9
20260508230502 24 128 6.4 8.0 0.00 0.00 0.00 29 1009.9
20260508225959 24 182 3.2 3.2 0.00 0.00 0.00 31 1009.9
20260508225456 23 118 1.6 6.4 0.00 0.00 0.00 29 1010.0
20260508224953 23 80 3.2 8.0 0.00 0.00 0.00 30 1010.0
20260508224450 23 123 6.4 6.4 0.00 0.00 0.00 30 1010.0
20260508223948 23 150 6.4 8.0 0.00 0.00 0.00 29 1010.1
20260508223445 24 144 1.6 6.4 0.00 0.00 0.00 29 1010.1
20260508222942 25 95 1.6 6.4 0.00 0.00 0.00 31 1010.2
20260508222440 25 17 3.2 6.4 0.00 0.00 0.00 29 1010.0
20260508221936 25 92 4.8 6.4 0.00 0.00 0.00 30 1010.3
20260508221432 25 125 6.4 6.4 0.00 0.00 0.00 28 1010.1
20260508220929 24 114 4.8 4.8 0.00 0.00 0.00 30 1010.3
20260508220425 25 134 0.0 11.3 0.00 0.00 0.00 29 1010.3
20260508215921 25 317 3.2 4.8 0.00 0.00 0.00 28 1010.3
20260508215419 25 121 1.6 4.8 0.00 0.00 0.00 29 1010.5
20260508214915 24 167 4.8 9.7 0.00 0.00 0.00 29 1010.2
20260508214413 24 128 6.4 8.0 0.00 0.00 0.00 28 1010.5
20260508213908 25 204 3.2 6.4 0.00 0.00 0.00 30 1010.5
20260508213406 25 286 0.0 9.7 0.00 0.00 0.00 30 1010.6
20260508212902 25 180 0.0 11.3 0.00 0.00 0.00 29 1010.3
20260508212358 25 156 1.6 12.9 0.00 0.00 0.00 30 1010.5
20260508211854 25 118 1.6 3.2 0.00 0.00 0.00 30 1010.3
20260508211350 25 125 4.8 6.4 0.00 0.00 0.00 30 1010.3
20260508210848 25 80 3.2 6.4 0.00 0.00 0.00 29 1010.7
20260508210344 25 138 3.2 8.0 0.00 0.00 0.00 31 1010.6
20260508205841 25 30 0.0 8.0 0.00 0.00 0.00 30 1010.7
20260508205337 25 128 8.0 9.7 0.00 0.00 0.00 30 1010.9
20260508204833 25 94 1.6 3.2 0.00 0.00 0.00 32 1010.9
20260508204331 25 334 0.0 3.2 0.00 0.00 0.00 33 1010.8
20260508203827 24 284 0.0 3.2 0.00 0.00 0.00 34 1010.9
20260508203323 23 214 1.6 4.8 0.00 0.00 0.00 33 1011.1
20260508202818 23 131 4.8 6.4 0.00 0.00 0.00 33 1010.9
20260508202317 23 128 9.7 9.7 0.00 0.00 0.00 32 1011.1
20260508201814 24 114 6.4 12.9 0.00 0.00 0.00 30 1011.1
20260508201310 24 37 0.0 4.8 0.00 0.00 0.00 31 1010.9
20260508200807 24 155 3.2 6.4 0.00 0.00 0.00 29 1011.4
20260508200303 25 94 3.2 4.8 0.00 0.00 0.00 31 1011.5
20260508195759 24 106 3.2 8.0 0.00 0.00 0.00 28 1011.4
20260508195256 25 320 0.0 3.2 0.00 0.00 0.00 33 1011.5
20260508194752 24 139 0.0 3.2 0.00 0.00 0.00 31 1011.8
20260508194250 23 358 1.6 4.8 0.00 0.00 0.00 29 1011.7
20260508193747 23 135 3.2 17.7 0.00 0.00 0.00 29 1012.0
20260508193243 23 102 0.0 6.4 0.00 0.00 0.00 29 1012.0
20260508192739 23 261 3.2 3.2 0.00 0.00 0.00 32 1012.0
20260508192237 23 55 4.8 9.7 0.00 0.00 0.00 31 1012.2
20260508191734 23 112 3.2 8.0 0.00 0.00 0.00 32 1012.2
20260508191231 23 279 1.6 3.2 0.00 0.00 0.00 34 1012.4
20260508190728 22 113 4.8 11.3 0.00 0.00 0.00 30 1012.6
20260508190224 23 50 3.2 4.8 0.00 0.00 0.00 34 1012.5
20260508185721 22 5 0.0 3.2 0.00 0.00 0.00 30 1012.5
20260508185218 22 49 6.4 12.9 0.00 0.00 0.00 32 1012.6
20260508184715 22 130 6.4 14.5 0.00 0.00 0.00 28 1012.5
20260508184213 22 111 4.8 6.4 0.00 0.00 0.00 29 1012.6
20260508183709 22 129 0.0 6.4 0.00 0.00 0.00 30 1013.0
20260508183205 22 141 3.2 9.7 0.00 0.00 0.00 28 1013.1
20260508182701 22 226 0.0 9.7 0.00 0.00 0.00 35 1013.3
20260508182158 22 123 3.2 6.4 0.00 0.00 0.00 33 1013.5
20260508181654 22 111 3.2 14.5 0.00 0.00 0.00 38 1013.5
20260508181151 22 131 8.0 9.7 0.00 0.00 0.00 30 1013.5
20260508180648 22 140 4.8 8.0 0.00 0.00 0.00 30 1013.4
20260508180145 22 121 9.7 9.7 0.00 0.00 0.00 32 1013.6
20260508175642 22 62 8.0 8.0 0.00 0.00 0.00 31 1013.7
20260508175138 21 180 3.2 8.0 0.00 0.00 0.00 34 1013.6
20260508174636 21 137 6.4 9.7 0.00 0.00 0.00 31 1013.7
20260508174132 21 88 1.6 11.3 0.00 0.00 0.00 38 1013.8
20260508173629 22 130 8.0 9.7 0.00 0.00 0.00 32 1013.9
20260508173125 21 142 3.2 6.4 0.00 0.00 0.00 32 1014.1
20260508172623 21 101 1.6 9.7 0.00 0.00 0.00 31 1014.1
20260508172119 21 208 4.8 6.4 0.00 0.00 0.00 32 1014.3
20260508171616 21 30 1.6 8.0 0.00 0.00 0.00 33 1014.4
20260508171112 21 126 4.8 8.0 0.00 0.00 0.00 34 1014.5
20260508170610 21 121 4.8 6.4 0.00 0.00 0.00 32 1014.5
20260508170107 21 137 6.4 11.3 0.00 0.00 0.00 33 1014.4
20260508165604 21 134 8.0 9.7 0.00 0.00 0.00 36 1014.6
20260508165101 20 137 1.6 6.4 0.00 0.00 0.00 33 1014.7
20260508164557 21 108 3.2 9.7 0.00 0.00 0.00 34 1014.9
20260508164054 21 68 4.8 9.7 0.00 0.00 0.00 39 1014.9
20260508163551 21 234 0.0 9.7 0.00 0.00 0.00 37 1015.1
20260508163048 21 39 4.8 14.5 0.00 0.00 0.00 35 1015.0
20260508162545 21 114 3.2 3.2 0.00 0.00 0.00 38 1015.1
20260508162042 20 121 1.6 8.0 0.00 0.00 0.00 37 1015.3
20260508161539 20 202 3.2 9.7 0.00 0.00 0.00 40 1015.5
20260508161036 20 111 3.2 9.7 0.00 0.00 0.00 35 1015.6
20260508160534 20 202 3.2 9.7 0.00 0.00 0.00 40 1015.6
20260508160031 20 89 1.6 6.4 0.00 0.00 0.00 37 1015.6
20260508155528 20 94 4.8 14.5 0.00 0.00 0.00 37 1015.8
20260508155025 20 131 6.4 8.0 0.00 0.00 0.00 38 1015.9
20260508154522 20 183 1.6 4.8 0.00 0.00 0.00 38 1015.7
20260508154019 20 114 8.0 8.0 0.00 0.00 0.00 38 1015.9
20260508153516 19 195 3.2 11.3 0.00 0.00 0.00 38 1015.8
20260508153012 19 122 3.2 9.7 0.00 0.00 0.00 37 1015.9
20260508152509 19 168 3.2 8.0 0.00 0.00 0.00 38 1015.9
20260508152005 18 50 6.4 8.0 0.00 0.00 0.00 42 1016.1
20260508151502 18 51 3.2 9.7 0.00 0.00 0.00 42 1016.0
20260508150958 18 110 4.8 12.9 0.00 0.00 0.00 43 1016.2
20260508150455 18 121 6.4 12.9 0.00 0.00 0.00 45 1016.1
20260508145950 18 77 6.4 9.7 0.00 0.00 0.00 47 1016.3
20260508145448 18 132 3.2 9.7 0.00 0.00 0.00 46 1016.3
20260508144944 18 142 3.2 8.0 0.00 0.00 0.00 48 1016.2
20260508144442 17 35 9.7 9.7 0.00 0.00 0.00 47 1016.2
20260508143939 17 95 4.8 9.7 0.00 0.00 0.00 49 1016.5
20260508143437 17 121 8.0 11.3 0.00 0.00 0.00 48 1016.3
20260508142933 17 104 3.2 6.4 0.00 0.00 0.00 49 1016.4
20260508142431 17 110 3.2 3.2 0.00 0.00 0.00 49 1016.5
20260508141926 17 161 1.6 6.4 0.00 0.00 0.00 47 1016.6
20260508141423 17 107 6.4 8.0 0.00 0.00 0.00 49 1016.6
20260508140921 17 118 4.8 6.4 0.00 0.00 0.00 48 1016.7
20260508140418 17 59 4.8 9.7 0.00 0.00 0.00 52 1016.7
20260508135913 17 61 6.4 6.4 0.00 0.00 0.00 51 1016.8
20260508135410 16 105 4.8 6.4 0.00 0.00 0.00 52 1016.8
20260508134907 16 124 8.0 8.0 0.00 0.00 0.00 53 1016.9
20260508134403 16 118 3.2 6.4 0.00 0.00 0.00 56 1016.8
20260508133900 15 94 3.2 4.8 0.00 0.00 0.00 56 1016.9
20260508133358 16 102 4.8 6.4 0.00 0.00 0.00 57 1016.8
20260508132854 16 110 1.6 9.7 0.00 0.00 0.00 56 1016.7
20260508132353 16 39 1.6 8.0 0.00 0.00 0.00 57 1016.8
20260508131849 16 74 1.6 4.8 0.00 0.00 0.00 65 1016.6
20260508131344 15 120 3.2 4.8 0.00 0.00 0.00 68 1016.7
20260508130841 15 98 0.0 6.4 0.00 0.00 0.00 70 1016.7
20260508130338 14 37 3.2 3.2 0.00 0.00 0.00 74 1016.7
20260508125834 13 353 0.0 1.6 0.00 0.00 0.00 78 1016.6
20260508125330 13 290 0.0 3.2 0.00 0.00 0.00 80 1016.7
20260508124828 13 32 0.0 1.6 0.00 0.00 0.00 81 1016.6
20260508124325 12 64 3.2 3.2 0.00 0.00 0.00 82 1016.7
20260508123824 12 109 0.0 1.6 0.00 0.00 0.00 83 1016.7
20260508123322 12 310 0.0 1.6 0.00 0.00 0.00 82 1016.6
20260508122818 12 72 0.0 1.6 0.00 0.00 0.00 83 1016.7
20260508122314 12 71 0.0 3.2 0.00 0.00 0.00 83 1016.6
20260508121812 12 46 0.0 3.2 0.00 0.00 0.00 85 1016.4
20260508121310 11 63 0.0 0.0 0.00 0.00 0.00 85 1016.5
20260508120807 10 93 3.2 3.2 0.00 0.00 0.00 96 1016.5
20260508120305 10 93 3.2 3.2 0.00 0.00 0.00 96 1016.4
20260508115802 10 93 3.2 3.2 0.00 0.00 0.00 96 1016.3
20260508115259 10 93 3.2 3.2 0.00 0.00 0.00 96 1016.1
20260508114756 10 93 3.2 3.2 0.00 0.00 0.00 96 1016.2
20260508114253 10 93 3.2 3.2 0.00 0.00 0.00 96 1016.1
20260508113749 9 75 3.2 3.2 0.00 0.00 0.00 97 1016.1
20260508113248 7 74 3.2 4.8 0.00 0.00 0.00 97 1016.0
20260508112744 7 74 3.2 4.8 0.00 0.00 0.00 97 1016.0
20260508112241 7 74 3.2 4.8 0.00 0.00 0.00 97 1015.8
20260508111737 7 62 3.2 3.2 0.00 0.00 0.00 97 1015.8
20260508111235 7 62 3.2 3.2 0.00 0.00 0.00 97 1015.8
20260508110732 7 92 3.2 3.2 0.00 0.00 0.00 97 1015.8
20260508110230 7 78 3.2 3.2 0.00 0.00 0.00 97 1015.7
20260508105729 7 81 3.2 3.2 0.00 0.00 0.00 97 1015.5
20260508105227 7 75 3.2 3.2 0.00 0.00 0.00 97 1015.5
20260508104724 7 53 3.2 3.2 0.00 0.00 0.00 97 1015.5
20260508104221 7 87 1.6 3.2 0.00 0.00 0.00 97 1015.6
20260508103718 7 31 3.2 4.8 0.00 0.00 0.00 97 1015.4
20260508103215 7 81 3.2 3.2 0.00 0.00 0.00 97 1015.5
20260508102712 7 87 3.2 3.2 0.00 0.00 0.00 97 1015.4
20260508102210 6 74 4.8 4.8 0.00 0.00 0.00 97 1015.5
20260508101707 6 85 3.2 4.8 0.00 0.00 0.00 97 1015.5
20260508101205 6 78 3.2 4.8 0.00 0.00 0.00 96 1015.5
20260508100702 6 65 3.2 4.8 0.00 0.00 0.00 96 1015.3
20260508100200 5 68 3.2 4.8 0.00 0.00 0.00 96 1015.4
20260508095656 5 84 3.2 3.2 0.00 0.00 0.00 96 1015.1
20260508095153 5 99 3.2 3.2 0.00 0.00 0.00 96 1015.1
20260508094650 5 88 3.2 3.2 0.00 0.00 0.00 96 1015.2
20260508094147 5 81 3.2 3.2 0.00 0.00 0.00 95 1014.9
20260508093644 6 84 3.2 3.2 0.00 0.00 0.00 95 1014.9
20260508093142 6 81 3.2 3.2 0.00 0.00 0.00 95 1015.0
20260508092639 6 69 3.2 3.2 0.00 0.00 0.00 95 1015.2
20260508092137 6 81 3.2 3.2 0.00 0.00 0.00 95 1015.0
20260508091634 6 73 3.2 3.2 0.00 0.00 0.00 95 1015.0
20260508091131 6 80 3.2 3.2 0.00 0.00 0.00 95 1015.1
20260508090629 6 71 3.2 3.2 0.00 0.00 0.00 95 1015.0
20260508090126 6 73 3.2 3.2 0.00 0.00 0.00 95 1014.9
20260508085622 6 66 3.2 4.8 0.00 0.00 0.00 95 1014.8
20260508085120 6 79 3.2 3.2 0.00 0.00 0.00 94 1014.9
20260508084616 6 75 3.2 4.8 0.00 0.00 0.00 94 1014.8
20260508084114 6 73 3.2 4.8 0.00 0.00 0.00 94 1015.1
20260508083610 6 73 3.2 4.8 0.00 0.00 0.00 94 1015.2
20260508083108 6 67 3.2 3.2 0.00 0.00 0.00 94 1015.1
20260508082603 6 84 3.2 3.2 0.00 0.00 0.00 94 1015.0
20260508082100 6 82 3.2 4.8 0.00 0.00 0.00 94 1015.0
20260508081558 7 87 3.2 3.2 0.00 0.00 0.00 94 1015.1
20260508081054 7 66 4.8 4.8 0.00 0.00 0.00 94 1015.1
20260508080552 7 69 3.2 4.8 0.00 0.00 0.00 93 1015.1
20260508080049 7 70 3.2 4.8 0.00 0.00 0.00 93 1015.2
20260508075545 7 66 4.8 4.8 0.00 0.00 0.00 93 1015.2
20260508075043 7 66 4.8 4.8 0.00 0.00 0.00 93 1015.2
20260508074541 7 80 3.2 3.2 0.00 0.00 0.00 92 1015.3
20260508074037 7 75 3.2 4.8 0.00 0.00 0.00 93 1015.2
20260508073534 7 63 3.2 3.2 0.00 0.00 0.00 92 1015.4
20260508073032 7 66 1.6 3.2 0.00 0.00 0.00 92 1015.3
20260508072528 7 82 3.2 4.8 0.00 0.00 0.00 92 1015.3
20260508072025 7 98 3.2 3.2 0.00 0.00 0.00 91 1015.3
20260508071523 7 83 3.2 3.2 0.00 0.00 0.00 91 1015.2
20260508071020 7 82 3.2 3.2 0.00 0.00 0.00 90 1015.1
20260508070518 7 76 3.2 4.8 0.00 0.00 0.00 90 1015.1
20260508070016 7 58 4.8 4.8 0.00 0.00 0.00 90 1015.1
20260508065514 7 58 3.2 4.8 0.00 0.00 0.00 89 1015.4
20260508065012 7 62 3.2 4.8 0.00 0.00 0.00 89 1015.4
20260508064509 7 74 3.2 4.8 0.00 0.00 0.00 89 1015.4
20260508064007 7 71 3.2 3.2 0.00 0.00 0.00 88 1015.5
20260508063504 7 75 3.2 4.8 0.00 0.00 0.00 88 1015.6
20260508063001 7 66 4.8 4.8 0.00 0.00 0.00 88 1015.5
20260508062459 7 65 3.2 3.2 0.00 0.00 0.00 88 1015.4
20260508061955 7 80 3.2 4.8 0.00 0.00 0.00 87 1015.5
20260508061454 7 82 3.2 3.2 0.00 0.00 0.00 86 1015.8
20260508060949 7 86 3.2 3.2 0.00 0.00 0.00 85 1015.6
20260508060447 7 86 3.2 4.8 0.00 0.00 0.00 84 1015.5
20260508055943 7 80 3.2 3.2 0.00 0.00 0.00 84 1015.4